Time,TemperatureF,DewpointF,PressureIn,WindDirection,WindDirectionDegrees,WindSpeedMPH,WindSpeedGustMPH,Humidity,HourlyPrecipIn,Conditions,Clouds,dailyrainin,SoftwareType,DateUTC
2013-05-18 00:06:00,66.7,64.0,30.13,North,1,0.0,0.0,90,0.00,,,0.00,weatherlink.com 1.10,2013-05-18 04:06:00,
2013-05-18 00:21:00,66.4,64.0,30.13,North,1,0.0,0.0,91,0.00,,,0.00,weatherlink.com 1.10,2013-05-18 04:21:00,
2013-05-18 00:36:00,66.2,64.0,30.13,North,1,0.0,0.0,92,0.00,,,0.00,weatherlink.com 1.10,2013-05-18 04:36:00,
2013-05-18 00:51:00,66.0,64.0,30.13,North,1,0.0,0.0,93,0.00,,,0.00,weatherlink.com 1.10,2013-05-18 04:51:00,
2013-05-18 01:06:00,65.6,64.0,30.13,North,1,0.0,0.0,93,0.00,,,0.00,weatherlink.com 1.10,2013-05-18 05:06:00,
2013-05-18 01:21:00,65.3,64.0,30.13,North,1,0.0,0.0,94,0.00,,,0.00,weatherlink.com 1.10,2013-05-18 05:21:00,
2013-05-18 01:36:00,64.8,63.0,30.12,North,1,0.0,0.0,95,0.00,,,0.00,weatherlink.com 1.10,2013-05-18 05:36:00,
2013-05-18 01:51:00,64.4,63.0,30.12,North,1,0.0,0.0,95,0.00,,,0.00,weatherlink.com 1.10,2013-05-18 05:51:00,
2013-05-18 02:06:00,63.9,63.0,30.11,North,1,0.0,0.0,95,0.00,,,0.00,weatherlink.com 1.10,2013-05-18 06:06:00,
2013-05-18 02:21:00,63.8,63.0,30.11,North,1,0.0,0.0,96,0.00,,,0.00,weatherlink.com 1.10,2013-05-18 06:21:00,
2013-05-18 02:36:00,63.7,63.0,30.11,North,1,0.0,0.0,96,0.00,,,0.00,weatherlink.com 1.10,2013-05-18 06:36:00,
2013-05-18 02:51:00,63.7,63.0,30.11,North,1,0.0,0.0,96,0.00,,,0.00,weatherlink.com 1.10,2013-05-18 06:51:00,
2013-05-18 03:06:00,63.8,63.0,30.11,North,1,0.0,0.0,97,0.00,,,0.00,weatherlink.com 1.10,2013-05-18 07:06:00,
2013-05-18 03:21:00,64.0,63.0,30.11,North,1,0.0,0.0,97,0.00,,,0.00,weatherlink.com 1.10,2013-05-18 07:21:00,
2013-05-18 03:36:00,64.3,64.0,30.11,North,1,0.0,0.0,97,0.00,,,0.00,weatherlink.com 1.10,2013-05-18 07:36:00,
2013-05-18 03:51:00,64.4,64.0,30.12,North,1,0.0,0.0,97,0.00,,,0.00,weatherlink.com 1.10,2013-05-18 07:51:00,
2013-05-18 04:06:00,64.5,63.0,30.11,North,1,0.0,0.0,96,0.00,,,0.00,weatherlink.com 1.10,2013-05-18 08:06:00,
2013-05-18 04:21:00,64.6,64.0,30.12,North,1,0.0,0.0,96,0.00,,,0.00,weatherlink.com 1.10,2013-05-18 08:21:00,
2013-05-18 04:36:00,64.8,64.0,30.12,North,1,0.0,0.0,96,0.00,,,0.00,weatherlink.com 1.10,2013-05-18 08:36:00,
2013-05-18 04:51:00,65.0,64.0,30.12,North,1,0.0,0.0,96,0.00,,,0.00,weatherlink.com 1.10,2013-05-18 08:51:00,
2013-05-18 05:06:00,65.0,64.0,30.11,North,1,0.0,0.0,96,0.00,,,0.00,weatherlink.com 1.10,2013-05-18 09:06:00,
2013-05-18 05:21:00,64.8,64.0,30.11,North,1,0.0,0.0,96,0.00,,,0.00,weatherlink.com 1.10,2013-05-18 09:21:00,
2013-05-18 05:36:00,64.5,63.0,30.12,North,1,0.0,0.0,96,0.00,,,0.00,weatherlink.com 1.10,2013-05-18 09:36:00,
2013-05-18 05:51:00,64.2,63.0,30.12,North,1,0.0,0.0,96,0.00,,,0.00,weatherlink.com 1.10,2013-05-18 09:51:00,
2013-05-18 06:06:00,63.9,63.0,30.13,North,1,0.0,0.0,97,0.00,,,0.00,weatherlink.com 1.10,2013-05-18 10:06:00,
2013-05-18 06:21:00,63.7,63.0,30.13,North,1,0.0,0.0,97,0.00,,,0.00,weatherlink.com 1.10,2013-05-18 10:21:00,
2013-05-18 06:36:00,63.7,63.0,30.13,North,1,0.0,0.0,97,0.00,,,0.00,weatherlink.com 1.10,2013-05-18 10:36:00,
2013-05-18 06:52:00,64.2,64.0,30.15,North,1,0.0,0.0,98,0.00,,,0.00,weatherlink.com 1.10,2013-05-18 10:52:00,
2013-05-18 07:07:00,65.0,65.0,30.15,North,1,0.0,0.0,98,0.00,,,0.00,weatherlink.com 1.10,2013-05-18 11:07:00,
2013-05-18 07:22:00,65.6,65.0,30.15,North,1,0.0,0.0,98,0.00,,,0.00,weatherlink.com 1.10,2013-05-18 11:22:00,
2013-05-18 07:37:00,66.1,65.0,30.15,North,1,0.0,0.0,97,0.00,,,0.00,weatherlink.com 1.10,2013-05-18 11:37:00,
2013-05-18 07:52:00,67.7,67.0,30.16,North,1,0.0,0.0,98,0.00,,,0.00,weatherlink.com 1.10,2013-05-18 11:52:00,
2013-05-18 08:07:00,70.5,69.0,30.16,North,1,0.0,0.0,96,0.00,,,0.00,weatherlink.com 1.10,2013-05-18 12:07:00,
2013-05-18 08:22:00,74.1,71.0,30.16,NE,56,0.0,0.0,90,0.00,,,0.00,weatherlink.com 1.10,2013-05-18 12:22:00,
2013-05-18 08:37:00,76.2,71.0,30.17,West,263,0.0,1.0,85,0.00,,,0.00,weatherlink.com 1.10,2013-05-18 12:37:00,
2013-05-18 08:52:00,76.1,71.0,30.18,ENE,63,0.0,1.0,84,0.00,,,0.00,weatherlink.com 1.10,2013-05-18 12:52:00,
2013-05-18 09:07:00,76.5,71.0,30.18,WNW,303,0.0,2.0,83,0.00,,,0.00,weatherlink.com 1.10,2013-05-18 13:07:00,
2013-05-18 09:22:00,78.2,71.0,30.18,WNW,282,0.0,3.0,78,0.00,,,0.00,weatherlink.com 1.10,2013-05-18 13:22:00,
2013-05-18 09:37:00,79.0,70.0,30.18,SW,231,0.0,4.0,75,0.00,,,0.00,weatherlink.com 1.10,2013-05-18 13:37:00,
2013-05-18 09:52:00,79.9,71.0,30.18,SSE,150,0.0,5.0,74,0.00,,,0.00,weatherlink.com 1.10,2013-05-18 13:52:00,
2013-05-18 10:07:00,81.2,70.0,30.17,NE,37,0.0,5.0,68,0.00,,,0.00,weatherlink.com 1.10,2013-05-18 14:07:00,
2013-05-18 10:22:00,81.2,69.0,30.17,ESE,123,0.0,6.0,66,0.00,,,0.00,weatherlink.com 1.10,2013-05-18 14:22:00,
2013-05-18 10:37:00,82.2,68.0,30.17,WNW,293,1.0,4.0,63,0.00,,,0.00,weatherlink.com 1.10,2013-05-18 14:37:00,
2013-05-18 10:52:00,83.0,68.0,30.17,WNW,300,1.0,4.0,61,0.00,,,0.00,weatherlink.com 1.10,2013-05-18 14:52:00,
2013-05-18 11:07:00,83.2,67.0,30.17,West,278,0.0,4.0,58,0.00,,,0.00,weatherlink.com 1.10,2013-05-18 15:07:00,
2013-05-18 11:22:00,82.4,67.0,30.17,West,274,1.0,4.0,60,0.00,,,0.00,weatherlink.com 1.10,2013-05-18 15:22:00,
2013-05-18 11:37:00,83.2,67.0,30.16,East,98,2.0,4.0,58,0.00,,,0.00,weatherlink.com 1.10,2013-05-18 15:37:00,
2013-05-18 11:52:00,84.8,67.0,30.16,West,276,4.0,4.0,55,0.00,,,0.00,weatherlink.com 1.10,2013-05-18 15:52:00,
2013-05-18 12:07:00,84.9,69.0,30.16,ESE,111,1.0,3.0,59,0.00,,,0.00,weatherlink.com 1.10,2013-05-18 16:07:00,
2013-05-18 12:22:00,86.5,70.0,30.16,SSE,147,0.0,4.0,58,0.00,,,0.00,weatherlink.com 1.10,2013-05-18 16:22:00,
2013-05-18 12:37:00,85.5,67.0,30.14,SE,131,1.0,6.0,55,0.00,,,0.00,weatherlink.com 1.10,2013-05-18 16:37:00,
2013-05-18 12:52:00,86.9,69.0,30.14,SSW,209,1.0,4.0,56,0.00,,,0.00,weatherlink.com 1.10,2013-05-18 16:52:00,
2013-05-18 13:07:00,87.2,70.0,30.14,West,277,0.0,3.0,56,0.00,,,0.00,weatherlink.com 1.10,2013-05-18 17:07:00,
2013-05-18 13:22:00,87.6,68.0,30.14,South,170,0.0,2.0,53,0.00,,,0.00,weatherlink.com 1.10,2013-05-18 17:22:00,
2013-05-18 13:37:00,88.8,68.0,30.13,ENE,77,2.0,6.0,50,0.00,,,0.00,weatherlink.com 1.10,2013-05-18 17:37:00,
2013-05-18 13:52:00,87.7,67.0,30.13,SSW,193,2.0,3.0,51,0.00,,,0.00,weatherlink.com 1.10,2013-05-18 17:52:00,
2013-05-18 14:07:00,86.7,65.0,30.13,East,80,1.0,6.0,49,0.00,,,0.00,weatherlink.com 1.10,2013-05-18 18:07:00,
2013-05-18 14:22:00,86.4,62.0,30.13,ESE,114,0.0,5.0,44,0.00,,,0.00,weatherlink.com 1.10,2013-05-18 18:22:00,
2013-05-18 14:37:00,86.4,61.0,30.12,SE,140,0.0,4.0,43,0.00,,,0.00,weatherlink.com 1.10,2013-05-18 18:37:00,
2013-05-18 14:53:00,86.9,60.0,30.11,SSE,155,1.0,6.0,41,0.00,,,0.00,weatherlink.com 1.10,2013-05-18 18:53:00,
2013-05-18 15:08:00,86.5,59.0,30.11,South,172,0.0,4.0,40,0.00,,,0.00,weatherlink.com 1.10,2013-05-18 19:08:00,
2013-05-18 15:38:00,86.7,60.0,30.10,ENE,65,3.0,4.0,40,0.00,,,0.00,weatherlink.com 1.10,2013-05-18 19:38:00,
2013-05-18 15:53:00,85.7,59.0,30.10,SE,142,1.0,3.0,40,0.00,,,0.00,weatherlink.com 1.10,2013-05-18 19:53:00,
2013-05-18 16:08:00,84.2,62.0,30.10,NE,48,1.0,8.0,47,0.00,,,0.00,weatherlink.com 1.10,2013-05-18 20:08:00,
2013-05-18 16:23:00,83.9,65.0,30.09,NE,53,2.0,7.0,53,0.00,,,0.00,weatherlink.com 1.10,2013-05-18 20:23:00,
2013-05-18 16:38:00,83.0,63.0,30.10,SSW,212,1.0,4.0,51,0.00,,,0.00,weatherlink.com 1.10,2013-05-18 20:38:00,
2013-05-18 16:53:00,82.1,63.0,30.09,SSW,202,0.0,4.0,53,0.00,,,0.00,weatherlink.com 1.10,2013-05-18 20:53:00,
2013-05-18 17:08:00,80.8,64.0,30.10,SSE,156,0.0,5.0,57,0.00,,,0.00,weatherlink.com 1.10,2013-05-18 21:08:00,
2013-05-18 17:23:00,80.3,65.0,30.10,SE,137,0.0,3.0,60,0.00,,,0.00,weatherlink.com 1.10,2013-05-18 21:23:00,
2013-05-18 17:38:00,79.9,67.0,30.10,SSW,197,0.0,1.0,64,0.00,,,0.00,weatherlink.com 1.10,2013-05-18 21:38:00,
2013-05-18 17:53:00,79.3,67.0,30.11,SSE,155,0.0,3.0,65,0.00,,,0.00,weatherlink.com 1.10,2013-05-18 21:53:00,
2013-05-18 18:08:00,78.8,67.0,30.11,SE,145,1.0,4.0,68,0.00,,,0.00,weatherlink.com 1.10,2013-05-18 22:08:00,
2013-05-18 18:23:00,78.0,67.0,30.11,ESE,113,0.0,3.0,69,0.00,,,0.00,weatherlink.com 1.10,2013-05-18 22:23:00,
2013-05-18 18:38:00,77.4,68.0,30.11,SSE,150,0.0,4.0,72,0.00,,,0.00,weatherlink.com 1.10,2013-05-18 22:38:00,
2013-05-18 18:53:00,77.0,67.0,30.11,ESE,105,0.0,1.0,72,0.00,,,0.00,weatherlink.com 1.10,2013-05-18 22:53:00,
2013-05-18 19:08:00,76.5,68.0,30.12,SE,139,0.0,1.0,74,0.00,,,0.00,weatherlink.com 1.10,2013-05-18 23:08:00,
2013-05-18 19:23:00,76.1,68.0,30.12,ESE,112,0.0,1.0,75,0.00,,,0.00,weatherlink.com 1.10,2013-05-18 23:23:00,
2013-05-18 19:38:00,75.7,68.0,30.12,ESE,110,0.0,1.0,76,0.00,,,0.00,weatherlink.com 1.10,2013-05-18 23:38:00,
2013-05-18 19:53:00,75.1,67.0,30.12,ESE,110,0.0,0.0,77,0.00,,,0.00,weatherlink.com 1.10,2013-05-18 23:53:00,
2013-05-18 20:08:00,74.6,68.0,30.12,ESE,110,0.0,0.0,79,0.00,,,0.00,weatherlink.com 1.10,2013-05-19 00:08:00,
2013-05-18 20:23:00,73.8,68.0,30.13,ESE,110,0.0,0.0,81,0.00,,,0.00,weatherlink.com 1.10,2013-05-19 00:23:00,
2013-05-18 20:38:00,73.0,68.0,30.13,ESE,110,0.0,0.0,83,0.00,,,0.00,weatherlink.com 1.10,2013-05-19 00:38:00,
2013-05-18 20:53:00,72.4,68.0,30.13,ESE,110,0.0,0.0,85,0.00,,,0.00,weatherlink.com 1.10,2013-05-19 00:53:00,
2013-05-18 21:08:00,71.8,68.0,30.13,ESE,110,0.0,0.0,86,0.00,,,0.00,weatherlink.com 1.10,2013-05-19 01:08:00,
2013-05-18 21:23:00,71.3,67.0,30.13,ESE,110,0.0,0.0,87,0.00,,,0.00,weatherlink.com 1.10,2013-05-19 01:23:00,
2013-05-18 21:38:00,70.9,68.0,30.13,ESE,110,0.0,0.0,89,0.00,,,0.00,weatherlink.com 1.10,2013-05-19 01:38:00,
2013-05-18 21:53:00,70.6,67.0,30.13,ESE,110,0.0,0.0,89,0.00,,,0.00,weatherlink.com 1.10,2013-05-19 01:53:00,
2013-05-18 22:08:00,70.3,68.0,30.13,ESE,110,0.0,0.0,91,0.00,,,0.00,weatherlink.com 1.10,2013-05-19 02:08:00,
2013-05-18 22:23:00,70.1,67.0,30.13,ESE,110,0.0,0.0,91,0.00,,,0.00,weatherlink.com 1.10,2013-05-19 02:23:00,
2013-05-18 22:38:00,69.9,67.0,30.13,ESE,110,0.0,0.0,91,0.00,,,0.00,weatherlink.com 1.10,2013-05-19 02:38:00,
2013-05-18 22:53:00,69.7,67.0,30.13,ESE,110,0.0,0.0,91,0.00,,,0.00,weatherlink.com 1.10,2013-05-19 02:53:00,
2013-05-18 23:08:00,69.5,67.0,30.13,ESE,110,0.0,0.0,92,0.00,,,0.00,weatherlink.com 1.10,2013-05-19 03:08:00,
2013-05-18 23:23:00,69.6,67.0,30.13,ESE,110,0.0,0.0,92,0.00,,,0.00,weatherlink.com 1.10,2013-05-19 03:23:00,
2013-05-18 23:53:00,69.6,68.0,30.13,ESE,110,0.0,0.0,94,0.00,,,0.00,weatherlink.com 1.10,2013-05-19 03:53:00,